Location: Warszawa
(52.2500°N, 21.0000°E)
Time: 00:03:50
(UTC+01:00)

A-11 Canister half - Pass Details

Date: 09 February 2023
Orbit: 1526 x 1682 km, 47.3° (Epoch: 22 March)

Event Time Altitude Azimuth Distance (km) Brightness Sun altitude
Exits shadow 01:52:21 13° 123° (ESE) 3,421 10.8 -45.4°
Drops below altitude 10° 01:55:57 10° 100° (E) 3,694 11.3 -45.0°
Sets 02:01:06 0° 77° (ENE) 4,689 12.2 -44.4°
